Regional Weather Roundup
Issued by NWS

Home | Current Version | Previous Version | Text Only | Print | Product List | Glossary Off
Versions: 1 2 3 4 5 6 7 8 9 10 11 12 13 14 15 16 17 18 19 20 21 22 23 24 25 26 27 28 29 30 31 32 33 34 35 36 37 38 39 40 41 42 43 44 45 46 47 48 49 50

000
ASUS43 KLSX 071207
RWRMO

WEATHER SUMMARY FOR MISSOURI
NATIONAL WEATHER SERVICE SPRINGFIELD MO
600 AM CST WED DEC 07 2016

NOTE: "FAIR" INDICATES FEW OR NO CLOUDS BELOW 12,000 FEET WITH NO
       SIGNIFICANT WEATHER AND/OR OBSTRUCTIONS TO VISIBILITY.
       CURRENT SKY AND/OR WEATHER CONDITIONS ARE NOT AVAILABLE FOR
       CHILLICOTHE AND FARMINGTON.

MOZ001>031-035>038-043-044-053-054-071300-
...NORTHERN AND WESTERN MISSOURI...

CITY           SKY/WX    TMP DP  RH WIND       PRES   REMARKS
KANSAS CTY INT CLOUDY    27  14  58 N8        30.17F WCI  19
6HR MIN TEMP:  27; 6HR MAX TEMP:  31;

KANSAS C DTWN  CLOUDY    31  14  49 NE8       30.18S WCI  23
6HR MIN TEMP:  31; 6HR MAX TEMP:  34;

LEE`S SUMMIT   CLOUDY    30  12  47 N13       30.16S WCI  20
6HR MIN TEMP:  30; 6HR MAX TEMP:  33;

ST JOSEPH      CLOUDY    25  14  63 N12       30.21R WCI  14
6HR MIN TEMP:  24; 6HR MAX TEMP:  29;

CHILLICOTHE      N/A     27  14  58 NW5       30.21S WCI  22
6HR MIN TEMP:  25; 6HR MAX TEMP:  30;

KIRKSVILLE     MOCLDY    25  14  63 W6        30.17R WCI  18
6HR MIN TEMP:  24; 6HR MAX TEMP:  29;


$$
MOZ066>068-077>081-088>096-101>105-071300-
...SOUTHWEST MISSOURI...

CITY           SKY/WX    TMP DP  RH WIND       PRES   REMARKS
SPRINGFIELD    MOCLDY    27  16  63 SE3       30.17R
6HR MIN TEMP:  26; 6HR MAX TEMP:  31;

JOPLIN         CLOUDY    31  19  61 CALM      30.18R
6HR MIN TEMP:  27; 6HR MAX TEMP:  31;

BRANSON        CLOUDY    30  19  64 CALM      30.19R

$$
MOZ032>034-039>042-045>050-055>058-069>072-071300-
...CENTRAL MISSOURI...

CITY           SKY/WX    TMP DP  RH WIND       PRES   REMARKS
COLUMBIA       CLOUDY    30  15  53 NW6       30.16S WCI  24
6HR MIN TEMP:  27; 6HR MAX TEMP:  31;

JEFFERSON CITY CLOUDY    26  22  84 CALM      30.20R
6HR MIN TEMP:  24; 6HR MAX TEMP:  28;

ROLLA          CLOUDY    27  20  75 CALM      30.15F
6HR MIN TEMP:  25; 6HR MAX TEMP:  29;

SEDALIA        CLOUDY    31  16  54 N3        30.18R
6HR MIN TEMP:  30; 6HR MAX TEMP:  32;

WHITEMAN AFB   PTCLDY    30  15  53 NE7       30.15S WCI  23
WARRENSBURG    CLOUDY    32  14  47 N7        30.17S WCI  26
OSAGE BEACH    CLOUDY    27  23  85 CALM      30.20R

$$
MOZ051-052-059>065-071300-
...EAST CENTRAL MISSOURI...

CITY           SKY/WX    TMP DP  RH WIND       PRES   REMARKS
ST LOUIS INTL  MOCLDY    30  18  60 SW3       30.18F
6HR MIN TEMP:  29; 6HR MAX TEMP:  34;

SPIRIT OF STL  CLOUDY    29  21  72 CALM      30.19S
6HR MIN TEMP:  26; 6HR MAX TEMP:  32;

ST CHARLES     CLOUDY    29  21  72 SW5       30.19R WCI  24
6HR MIN TEMP:  28; 6HR MAX TEMP:  34;


$$
MOZ072>076-082>087-097>100-106>115-071300-
...SOUTH CENTRAL AND SOUTHEAST MISSOURI...

CITY           SKY/WX    TMP DP  RH WIND       PRES   REMARKS
CAPE GIRARDEAU CLEAR     30  24  78 N6        30.20R WCI  24
6HR MIN TEMP:  30; 6HR MAX TEMP:  37;

FARMINGTON     CLEAR     28  19  69 N5        30.18S WCI  23
6HR MIN TEMP:  28; 6HR MAX TEMP:  33;

POPLAR BLUFF   CLOUDY    32  26  78 N6        30.21R WCI  26
6HR MIN TEMP:  31; 6HR MAX TEMP:  38;

WEST PLAINS    MOCLDY    26  17  68 NE6       30.18R WCI  19
6HR MIN TEMP:  25; 6HR MAX TEMP:  34;


$$


USA.gov is the U.S. government's official web portal to all federal, state and local government web resources and services.